DECAYED

ELECTRON R/B, 67615 (Decayed)

Orbit data source: Space-Track

ELECTRON R/B, 67615 was space debris in LEO originally from a launch on Fri, 30 Jan 2026 UTC launched from the Rocket Lab Launch Complex (RLLC). Debris objects in space refer to the collection of defunct objects orbiting the Earth. Examples of debris include non-operational satellites, rocket bodies, and fragments generated from explosions, collisions, or faulty payload assembly.

Not visible in the next 10 days
Identifier
67615, 2026-019B
Orbit
Decayed
Country
Flag of USUS
Related business
Manufacturer
Rocket Lab
Mission
Decayed spacecraft
Bus & Motor
ELECTRON ST2, Unknown motor
Mass
250 kg wet, ~250 kg dry
Launch date (UTC)
2026-01-30 (5 months ago)
Launch vehicle
Unknown
Launch site
Rocket Lab Launch Complex (RLLC)
Object type
Payload
Rocket body
Debris
Shape & HBR
Cyl, 8.0 m
Radar Cross Section
2.827 m², Large (>1 m²)

Expand to show TLE details & history
Last TLE update: 4 months ago

TLE from 4 months ago
0 ELECTRON R/B
1 67615U 26019B   26042.49253174  .15754726  19625-5  86016-3 0  9991
2 67615  97.4091 168.6564 0041350 200.0421 159.9255 16.36375123  1975
Epoch: 2026-02-11T11:49Z
TLE epoch observation values (Epoch: 2026-02-11T11:49:14.742Z)
Latitude
-0.00002°
Longitude
-150.21289°
Altitude
204.181 km
Speed
7.769 km/s
True Right ascension
11h 14m 37s
True Declination
0° 00' 00"
Sunlit
Object was in full shadow at epoch
Visualization orbit readout
Latitude
Unknown
Longitude
Unknown
Altitude
Unknown
Speed
Unknown
Apparent Right ascension
Unknown
Apparent Declination
Unknown
Sunlit
N/A
Visualization observer readout
Local Sidereal Time
07:24:12
Azimuth
Unknown
Elevation
Unknown
Doppler factor
Unknown
Orbital elements
Apogee altitude
199.362 km
Perigee altitude
145.19 km
Semi-major axis
6,550.413 km
Eccentricity
0.00414
Inclination
97.4091°
RAAN
168.6564°
Arg. of periapsis
200.0421°
True anomaly
160.08735°
Mean anomaly
159.9255°
Eccentric anomaly
160.00651°
Mean motion
4.09393 °/min
Orbital period
87.94 mins
BSTAR
0.00086016
Loading maneuver chart data...
Computing Atmospheric mass density...
Loading historical data...
Loading historical data...
Loading historical data...
Loading historical data...
Loading historical data...
Loading historical data...
Loading historical data...
Other satellites on launch #19 in the year 2026 (2026-01-30 UTC)

Documentation

Showing up to 5 results
|